[Iaude] MPEC R155: 2016 RB34 [a=1.14,e=0.11,i=9.0,H=25.2]

mpec at mpc.eps.harvard.edu mpec at mpc.eps.harvard.edu
Tue Sep 13 22:39:16 EDT 2016


M.P.E.C. 2016-R155                               Issued 2016 Sept. 14, 02:36 UT
 
     The Minor Planet Electronic Circulars contain information on unusual
         minor planets and routine data on comets.  They are published
    on behalf of Division F of the International Astronomical Union by the
          Minor Planet Center, Smithsonian Astrophysical Observatory,
                          Cambridge, MA 02138, U.S.A.

             Prepared using the Tamkin Foundation Computer Network

                              MPC at CFA.HARVARD.EDU
            URL http://www.minorplanetcenter.net/    ISSN 1523-6714


                                   2016 RB34
 
Observations:
     K16R34B* C2016 09 11.31168 00 14 15.13 +12 26 47.3          19.8 VqER155G96
     K16R34B  C2016 09 11.31609 00 14 13.05 +12 27 28.9          19.6 VqER155G96
     K16R34B  C2016 09 11.32128 00 14 10.57 +12 28 18.5          19.6 VqER155G96
     K16R34B  C2016 09 11.32767 00 14 07.54 +12 29 19.9          19.7 VqER155G96
     K16R34B  C2016 09 11.47506 00 12 58.71 +12 52 19.9          19.3 VqER155G96
     K16R34B  C2016 09 11.47530 00 12 58.63 +12 52 21.8          19.7 VqER155G96
     K16R34B  C2016 09 11.47554 00 12 58.55 +12 52 24.0          19.7 VqER155G96
     K16R34B  C2016 09 11.47578 00 12 58.42 +12 52 26.2          19.4 VqER155G96
     K16R34B KC2016 09 11.82483 00 10 55.18 +13 45 15.6          19.5 RqER155A17
     K16R34B KC2016 09 11.83656 00 10 50.26 +13 47 03.8          19.5 RqER155A17
     K16R34B KC2016 09 11.84828 00 10 45.31 +13 48 52.6          19.3 RqER155A17
     K16R34B  C2016 09 12.22941 00 08 16.18 +14 46 30.1          19.6 VqER155G96
     K16R34B  C2016 09 12.23102 00 08 15.46 +14 46 44.6          19.7 VqER155G96
     K16R34B  C2016 09 12.23322 00 08 14.50 +14 47 03.8          19.6 VqER155G96
     K16R34B  C2016 09 12.23598 00 08 13.26 +14 47 28.9          19.4 VqER155G96
     K16R34B KC2016 09 12.25729600 07 59.65 +14 50 21.8          19.9 VuER155H21
     K16R34B KC2016 09 12.26197200 07 57.56 +14 51 03.0          20.0 VuER155H21
     K16R34B KC2016 09 12.26629300 07 55.62 +14 51 40.7          20.0 VuER155H21
     K16R34B KC2016 09 12.27025200 07 53.84 +14 52 15.5          20.0 VuER155H21
     K16R34B KC2016 09 12.87162 00 04 11.74 +16 17 09.6          19.3 RtER155104
     K16R34B KC2016 09 12.88022 00 04 08.13 +16 18 21.9          19.4 RtER155104
     K16R34B KC2016 09 12.88920 00 04 04.39 +16 19 37.2          19.7 RtER155104
     K16R34B  C2016 09 12.96791 00 03 30.43 +16 30 20.3                qER155246
     K16R34B  C2016 09 12.96835 00 03 30.18 +16 30 23.8                qER155246
     K16R34B  C2016 09 12.96880 00 03 30.02 +16 30 27.5                qER155246
     K16R34B  C2016 09 12.96896 00 03 30.00 +16 30 28.6                qER155246
 
Observer details:
104 San Marcello Pistoiese.  Observers P. Bacci, M. Maestripieri.  Measurers
    P. Bacci, L. Tesi, G. Fagioli.  0.60-m f/4 reflector + CCD.
246 Klet Observatory-KLENOT.  Observers M. Tichy, J. Ticha.  Measurer M. Tichy.
    1.06-m KLENOT Telescope + CCD.
A17 Guidestar Observatory, Weinheim.  Observers M. Emmerich, S. Melchert.
    0.36-m f/6 Schmidt-Cassegrain + CCD.
G96 Mt. Lemmon Survey.  Observers A. R. Gibbs, R. A. Kowalski.  Measurers
    E. J. Christensen, D. C. Fuls, A. R. Gibbs, A. D. Grauer, J. A. Johnson,
    R. A. Kowalski, S. M. Larson, G. J. Leonard, R. G. Matheny, R. L. Seaman,
    F. C. Shelly.  1.5-m reflector + 10K CCD.
H21 Astronomical Research Observatory, Westfield.  Observer R. Holmes.
    Measurers S. Foglia, L. Buzzi, T. Linder, R. Holmes.  0.61-m f/4.5
    astrograph + CCD.
 
Orbital elements:
2016 RB34                                                Earth MOID = 0.0333 AU
Epoch 2016 July 31.0 TT = JDT 2457600.5                 MPC
M   6.04197              (2000.0)            P               Q
n   0.81134155     Peri.  313.23290     +0.50400251     +0.86297585
a   1.1385014      Node   346.89783     -0.74024507     +0.41047225
e   0.1104901      Incl.    8.98775     -0.44499294     +0.29459329
P   1.21           H   25.2           G   0.15           U   6
Residuals in seconds of arc
160911 G96  0.1+  0.2+    160911 A17  0.1-  0.7-    160912 H21  0.1-  0.0
160911 G96  0.3+  0.3-    160911 A17  0.2-  0.2-    160912 104  0.3+  0.2+
160911 G96  0.0   0.2-    160912 G96  0.0   0.1+    160912 104  0.2-  0.0
160911 G96  0.1+  0.3+    160912 G96  0.2-  0.2+    160912 104  0.1-  0.3-
160911 G96  0.4-  0.5+    160912 G96  0.1-  0.2-    160912 246  0.4+  0.2+
160911 G96  0.0   0.1+    160912 G96  0.4-  0.3+    160912 246  0.5-  0.1+
160911 G96  0.4+  0.1+    160912 H21  0.0   0.1-    160912 246  0.1-  0.1+
160911 G96  0.0   0.1+    160912 H21  0.1+  0.0     160912 246  0.6+  0.1-
160911 A17  0.1+  0.3-    160912 H21  0.0   0.1-

Ephemeris:
2016 RB34                a,e,i = 1.14, 0.11, 9                   q = 1.0127
Date    TT    R. A. (2000) Decl.     Delta      r     Elong.  Phase     V
2016 08 15    04 33 34.4 -58 10 18   0.06657 1.0206    94.9    81.4    22.2
...
2016 08 30    02 02 26.8 -30 48 53   0.03976 1.0341   127.0    51.2    20.2
...
2016 09 07    00 46 39.5 -00 58 56   0.03981 1.0436   153.7    25.3    19.5
...
2016 09 13    00 03 17.9 +16 36 12   0.04896 1.0515   157.5    21.5    19.8
2016 09 14    23 57 17.1 +18 46 09   0.05103 1.0529   156.7    22.2    19.9
2016 09 15    23 51 36.0 +20 44 12   0.05321 1.0543   155.7    23.1    20.0
...
2016 09 21    23 23 42.6 +29 09 35   0.06818 1.0632   149.3    28.8    20.8
...
2016 09 29    23 00 05.0 +34 35 45   0.09137 1.0757   142.6    34.5    21.6
...
2016 10 14    22 44 58.9 +37 18 59   0.1405  1.1011   134.9    39.9    22.7

A. U. Tomatic                (C) Copyright 2016 MPC           M.P.E.C. 2016-R155




More information about the Iaude mailing list